Regional Weather Roundup
Issued by NWS Little Rock, AR

Home | Current Version | Previous Version | Graphics & Text | Print | Product List | Glossary On
Versions: 1 2 3 4 5 6 7 8 9 10 11 12 13 14 15 16 17 18 19 20 21 22 23 24 25 26 27 28 29 30 31 32 33 34 35 36 37 38 39 40 41 42 43 44 45 46 47 48 49 50
000
ASUS44 KLZK 121905
RWRLZK

WEATHER ROUNDUP FOR ARKANSAS
NATIONAL WEATHER SERVICE LITTLE ROCK AR
100 PM CST TUE DEC 12 2017

NOTE: "FAIR" INDICATES FEW OR NO CLOUDS BELOW 12,000 FEET WITH NO
SIGNIFICANT WEATHER AND/OR OBSTRUCTIONS TO VISIBILITY.

ARZ001-003-010-029-122000-
NORTHWEST ARKANSAS

CITY           SKY/WX    TMP DP  RH WIND       PRES   REMARKS
FAYETTEVILLE   SUNNY     43  13  29 W12       30.29F
FORT SMITH     SUNNY     49  14  24 W14       30.31F
HARRISON       SUNNY     41  13  31 NW9G17    30.25F
BENTONVILLE    SUNNY     40   9  28 NW6       30.31F
ROGERS         SUNNY     40  13  33 W5        30.29F
SILOAM SPGS    SUNNY     42  11  28 MISG      30.31F
HIGHFILL       SUNNY     41  15  35 W12       30.30F
SPRINGDALE     SUNNY     41  12  30 NW10      30.31F
$$

ARZ004-005-016-122000-
NORTH CENTRAL ARKANSAS

CITY           SKY/WX    TMP DP  RH WIND       PRES   REMARKS
BATESVILLE     SUNNY     46  16  30 VRB5      30.23F
FLIPPIN        SUNNY     43  14  31 NW8       30.26F
MTN HOME       SUNNY     42  13  30 VRB5      30.24F
$$

ARZ040-041-122000-
WEST CENTRAL ARKANSAS

CITY           SKY/WX    TMP DP  RH WIND       PRES   REMARKS
MENA           SUNNY     52   5  15 N12       30.27F
MOUNT IDA      SUNNY     51  15  23 N9G17     30.24F
$$

ARZ009-017-025-026-028-122000-
NORTHEAST ARKANSAS

CITY           SKY/WX    TMP DP  RH WIND       PRES   REMARKS
CORNING        FAIR      45  18  33 NW9G17    30.21F
JONESBORO      SUNNY     44  24  45 NW12G18   30.21F
NEWPORT        SUNNY     46  18  32 N13G18    30.23F
WALNUT RIDGE   SUNNY     44  16  32 NW14      30.23F
BLYTHEVILLE    SUNNY     49  27  42 NW18G24   30.20F
$$

ARZ022-023-033-042-044-122000-
CENTRAL ARKANSAS

CITY           SKY/WX    TMP DP  RH WIND       PRES   REMARKS
LITTLE ROCK    MOSUNNY   51  17  26 W15       30.24F
N LITTLE ROCK    N/A     49  17  28 N8        30.25F
JACKSONVILLE   SUNNY     52  16  24 N10       30.22F
SEARCY         SUNNY     51  16  24 NW10      30.24F
HOT SPRINGS    SUNNY     53  16  23 NW10      30.25F
RUSSELLVILLE   SUNNY     48  16  27 W13G22    30.26F
CLINTON        FAIR      46  14  27 VRB7G14   30.25F
$$

ARZ036-122000-
EAST ARKANSAS

CITY           SKY/WX    TMP DP  RH WIND       PRES   REMARKS
WEST MEMPHIS   SUNNY     46  29  51 N10G17    30.19F
$$

ARZ050-053-066-070-073-122000-
SOUTHWEST ARKANSAS

CITY           SKY/WX    TMP DP  RH WIND       PRES   REMARKS
ARKADELPHIA    FAIR      53  19  26 N10       30.26F
CAMDEN         SUNNY     57  16  19 NW7       30.24F
TEXARKANA      SUNNY     53  16  23 NW10      30.29F
EL DORADO      SUNNY     54  26  34 NW9       30.25F
DE QUEEN       SUNNY     54  15  21 NW9       30.27F
$$

ARZ056-057-069-122000-
SOUTHEAST ARKANSAS

CITY           SKY/WX    TMP DP  RH WIND       PRES   REMARKS
PINE BLUFF     SUNNY     51  18  27 NW12G20   30.23F
STUTTGART      SUNNY     50  16  25 N17       30.23F
MONTICELLO     SUNNY     55  16  21 N8        30.22F

$$





USA.gov is the U.S. government's official web portal to all federal, state and local government web resources and services.